Weather in Khandyga

Russia / Sakha (Yakutia) Republic     62°39′12″N   135°33′46″E
temp.,
°C
wind,
m/s
gust,
m/s
humid.,
%
clouds,
%
prec.,
mm/h
press.,
hPa
HPBL,
m
20 april, tue
tue2000:00−5wnw2498100 0.1 101096
03:00−6wnw2598100 0.1 1009120
06:00−5wnw2597100 0.0 1009148
09:00−2wnw2290100 0.3 1008382
12:00−1w2398100 1.3 1007379
15:00−1wnw3390100 1.9 1009572
18:00−3w3597100 0.3 1010401
21:00−5wnw3796100 0.7 1012368
21 april, wed
wed2100:00−7w2696100 0.6 1013314
03:00−8wsw2596100 1.3 1014244
06:00−10w2594100 0.3 1016258
09:00−8wsw2388100 0.3 1018447
12:00−5wsw2377100 0.0 1019865
15:00−3w2269100 0.1 10201098
18:00−3nne008795 0.2 102118
21:00−12e119777 0.2 102219
22 april, thu
thu2200:00−18ese229947 0.0 102412
03:00−21ese2210037 0.0 102513
06:00−14ese129415 0.0 102452
09:00−6ne1284100 0.0 1023294
12:00−3ne2275100 0.0 1021813
15:00−2n1270100 0.0 1020908
18:00−3nnw2387100 0.0 1020101
21:00−11nnw1195100 0.0 102110
23 april, fri
fri2300:00−13w1197100 0.0 102118
03:00−10w2897100 0.0 1022251
06:00−9w4893100 0.3 1023450
09:00−8wsw3482100 0.4 1023794
12:00−5w3572100 0.1 10211259
15:00−3nw1379100 0.5 1020780
18:00−4ene239078 0.3 1018226
21:00−13ene229874 0.3 101816
24 april, sat
sat2400:00−14ne129888 0.0 101826
03:00−20n119916 0.0 101810
06:00−16nw12905 0.0 101964
09:00−8nw13805 0.0 1018359
12:00−4nnw25715 0.0 1017976
15:00−2n4763100 0.0 10171662
18:00−4n37735 0.0 1017253
21:00−15nw22945 0.0 101710